FENGYUN 1C DEB, 31095

Orbit data source: Space-Track

FENGYUN 1C DEB, 31095 is space debris in SSO originally from a launch on Mon, 10 May 1999 UTC launched from the Taiyaun Space Center, China (TSC). Fengyun 1C debris stems from the Chinese weather satellite Fengyun-1C, which was intentionally destroyed by a Chinese anti-satellite missile in 2007. This event dramatically increased the amount of space debris, with thousands of trackable fragments posing hazards to satellites and human spaceflight. The Fengyun 1C debris cloud has become a focal point in discussions about space sustainability and the need for international regulations to prevent the creation of new debris.

Loading next visibility...
Identifier
31095, 1999-025BGR
Orbit
SSO
Country
Flag of CNCN / PRC
Related business
Manufacturer
Unknown
Mission
Spacecraft
Bus & Motor
Unknown
Mass
Unknown
Launch date (UTC)
1999-05-10 (27 years ago)
Launch vehicle
Unknown
Launch site
Taiyaun Space Center, China (TSC)
Object type
Payload
Rocket body
Debris
Shape & HBR
Unknown shape, 0.1 m
Radar Cross Section
Small (<0.1 m²)

Expand to show TLE details & history
Last TLE update: 2 days ago

TLE from 2 days ago
0 FENGYUN 1C DEB
1 31095U 99025BGR 25351.14901524  .00000313  00000-0  56568-3 0  9995
2 31095  98.5625 132.7204 0500072 181.3173 178.6655 13.06670581895054
Epoch: 2025-12-17T03:34Z
TLE epoch observation values (Epoch: 2025-12-17T03:34:34.916Z)
Latitude
-0.00003°
Longitude
-6.9481°
Altitude
1,619.575 km
Speed
6.882 km/s
True Right ascension
08h 50m 52s
True Declination
0° 00' 00"
Sunlit
Object was in full shadow at epoch
Visualization orbit readout
Latitude
Unknown
Longitude
Unknown
Altitude
Unknown
Speed
Unknown
Apparent Right ascension
Unknown
Apparent Declination
Unknown
Sunlit
N/A
Visualization observer readout
Local Sidereal Time
21:04:50
Azimuth
Unknown
Elevation
Unknown
Doppler factor
Unknown
Orbital elements
Apogee altitude
1,613.991 km
Perigee altitude
852.731 km
Semi-major axis
7,611.498 km
Eccentricity
0.05001
Inclination
98.5625°
RAAN
132.7204°
Arg. of periapsis
181.3173°
True anomaly
178.79109°
Mean anomaly
178.6655°
Eccentric anomaly
178.72905°
Mean motion
3.26842 °/min
Orbital period
110.14 mins
BSTAR
0.00056568
Loading maneuver chart data...
Computing Atmospheric mass density...

Documentation

Showing up to 5 results
|